1491948000.49,4595,13.75,73246.0,-12.43,-15.29,-15.15,0,*56
1491948001.74,4596,13.75,73248.8,-12.43,-15.21,-15.21,0,*5A
1491948002.97,4597,13.75,73258.0,-12.43,-15.15,-15.21,0,*5C
1491948004.18,4598,13.75,73264.3,-12.43,-15.11,-15.11,0,*54
1491948005.4,4599,13.75,73256.5,-12.41,-15.11,-15.15,0,*53
1491948006.64,4600,13.75,73254.8,-12.43,-15.15,-15.21,0,*51
1491948007.87,4601,13.75,73244.3,-12.43,-15.21,-15.15,0,*50
1491948009.07,4602,13.75,73230.3,-12.43,-15.11,-15.15,0,*50
1491948010.28,4603,13.75,73234.8,-12.43,-15.15,-15.15,0,*55
1491948011.56,4604,13.75,73242.0,-12.45,-15.21,-15.21,0,*54
1491948012.8,4605,13.75,73262.5,-12.45,-15.11,-15.11,0,*55
1491948014.05,4606,13.75,73218.8,-12.45,-15.01,-15.11,0,*57
1491948015.3,4607,13.75,73188.3,-12.45,-15.01,-15.11,0,*56
1491948016.56,4608,13.75,73174.5,-12.45,-15.01,-15.11,0,*59
1491948017.79,4609,13.75,73130.5,-12.45,-15.11,-15.15,0,*5D
1491948019.02,4610,13.75,73152.3,-12.45,-15.11,-15.15,0,*55
1491948020.26,4611,13.75,73186.0,-12.45,-15.11,-15.11,0,*50
1491948021.5,4612,13.75,73214.8,-12.43,-14.83,-14.89,0,*5F
1491948022.73,4613,13.75,73252.8,-12.43,-15.01,-14.89,0,*55
1491948023.94,4614,13.75,73262.5,-12.43,-14.89,-14.89,0,*53
1491948025.18,4615,13.75,73228.3,-12.43,-14.89,-14.97,0,*5D
1491948026.43,4616,13.75,73204.5,-12.43,-15.01,-15.01,0,*51
1491948027.68,4617,13.75,73190.0,-12.43,-14.97,-14.97,0,*50
1491948028.93,4618,13.75,73178.3,-12.41,-14.69,-14.83,0,*59
1491948030.2,4619,13.75,73204.8,-12.43,-14.83,-14.83,0,*5E
1491948031.41,4620,13.75,73230.5,-12.41,-14.69,-14.69,0,*56
1491948032.63,4621,13.75,73224.8,-12.43,-14.89,-14.89,0,*55
1491948033.88,4622,13.75,73246.5,-12.43,-15.01,-15.01,0,*56
1491948035.1,4623,13.75,73240.3,-12.43,-15.01,-15.11,0,*56
1491948036.31,4624,13.75,73228.8,-12.43,-15.11,-15.15,0,*54
1491948037.51,4625,13.75,73222.5,-12.43,-15.11,-15.15,0,*55
1491948038.75,4626,13.75,73232.5,-12.45,-15.15,-15.11,0,*50
1491948040.01,4627,13.75,73214.5,-12.45,-14.97,-15.11,0,*5A
1491948041.29,4628,13.75,73216.0,-12.45,-14.97,-14.97,0,*5A
1491948042.58,4629,13.75,73230.8,-12.45,-14.83,-14.83,0,*5B
1491948043.81,4630,13.75,73210.0,-12.43,-14.75,-14.69,0,*58
1491948045.07,4631,13.75,73210.5,-12.43,-14.75,-14.75,0,*54
1491948046.34,4632,13.75,73224.0,-12.41,-14.75,-14.75,0,*55
1491948047.58,4633,13.75,73230.0,-12.43,-14.83,-14.89,0,*5C
1491948048.82,4634,13.75,73168.3,-12.43,-14.89,-14.83,0,*5B
1491948050.08,4635,13.75,73152.5,-12.43,-14.97,-14.97,0,*50
1491948051.34,4636,13.75,73170.5,-12.43,-14.83,-14.83,0,*53
1491948052.57,4637,13.75,73216.0,-12.43,-14.69,-14.75,0,*5F
1491948053.76,4638,13.75,73224.3,-12.43,-14.69,-14.69,0,*5D
1491948055.03,4639,13.75,73240.0,-12.43,-14.83,-14.75,0,*55
1491948056.3,4640,13.75,73220.3,-12.41,-14.97,-15.01,0,*5E
1491948057.55,4641,13.75,73244.3,-12.43,-14.97,-15.01,0,*5D
1491948058.8,4642,13.75,73230.0,-12.43,-14.97,-14.97,0,*50
1491948060.04,4643,13.75,73228.0,-12.43,-14.89,-14.97,0,*5E
1491948061.29,4644,13.75,73236.8,-12.43,-14.97,-15.01,0,*58
1491948062.54,4645,13.75,73226.3,-12.43,-15.01,-15.01,0,*57
1491948063.79,4646,13.75,73234.8,-12.43,-14.97,-15.01,0,*5A
1491948065.0,4647,13.75,73230.5,-12.43,-15.11,-15.11,0,*55
1491948066.2,4648,13.75,73220.3,-12.43,-15.11,-15.15,0,*5E
1491948067.41,4649,13.75,73202.0,-12.43,-15.11,-15.11,0,*5B
1491948068.66,4650,13.75,73202.8,-12.45,-15.01,-15.11,0,*54
1491948069.92,4651,13.75,73228.5,-12.45,-15.01,-15.11,0,*55
1491948071.2,4652,13.75,73236.3,-12.45,-14.97,-15.01,0,*59
1491948072.45,4653,13.75,73216.8,-12.45,-15.07,-14.93,0,*5A
1491948073.73,4654,13.75,73178.0,-12.45,-15.01,-15.01,0,*51
1491948075.01,4655,13.75,73194.0,-12.45,-15.01,-15.01,0,*50
1491948076.29,4656,13.75,73242.5,-12.45,-15.01,-15.01,0,*53
1491948077.56,4657,13.75,73220.5,-12.45,-15.01,-15.01,0,*52
1491948078.84,4658,13.75,73228.5,-12.45,-15.01,-14.97,0,*53
1491948080.12,4659,13.75,73232.3,-12.45,-15.01,-15.01,0,*5C
1491948081.33,4660,13.75,73228.5,-12.43,-15.15,-15.11,0,*54
1491948082.54,4661,13.75,73230.5,-12.43,-15.15,-15.15,0,*51
1491948083.76,4662,13.75,73230.5,-12.43,-15.15,-15.15,0,*52
1491948084.99,4663,13.75,73248.5,-12.43,-15.21,-15.15,0,*54
1491948086.22,4664,13.75,73248.3,-12.45,-15.15,-15.11,0,*56
1491948087.45,4665,13.75,73236.3,-12.45,-15.11,-15.11,0,*53
1491948088.69,4666,13.75,73234.0,-12.45,-15.11,-15.11,0,*50
1491948089.92,4667,13.75,73238.8,-12.45,-15.11,-15.11,0,*51
1491948091.17,4668,13.75,73234.8,-12.45,-15.11,-15.01,0,*5F
1491948092.41,4669,13.75,73224.0,-12.45,-15.11,-15.11,0,*5F
1491948093.64,4670,13.75,73222.3,-12.45,-15.11,-15.11,0,*57
1491948094.87,4671,13.75,73220.0,-12.45,-15.11,-15.11,0,*56
1491948096.11,4672,13.75,73212.5,-12.45,-15.15,-15.15,0,*55
1491948097.35,4673,13.75,73224.8,-12.45,-15.15,-15.07,0,*57
1491948098.6,4674,13.75,73216.3,-12.45,-15.11,-15.01,0,*52
1491948099.87,4675,13.75,73232.3,-12.45,-14.89,-14.97,0,*5D
1491948101.15,4676,13.75,73230.8,-12.45,-14.83,-14.75,0,*58
1491948102.44,4677,13.75,73222.0,-12.45,-14.93,-14.93,0,*50
1491948103.67,4678,13.75,73212.3,-12.45,-15.07,-15.07,0,*5F
1491948104.95,4679,13.75,73214.8,-12.45,-15.21,-15.21,0,*5E
1491948106.21,4680,13.75,73220.8,-12.45,-15.15,-15.21,0,*5F
1491948107.47,4681,13.75,73224.3,-12.45,-15.15,-15.21,0,*5E
1491948108.74,4682,13.75,73230.8,-12.45,-15.15,-15.21,0,*5D
1491948109.99,4683,13.75,73226.5,-12.45,-15.21,-15.15,0,*5C
1491948111.23,4684,13.75,73236.3,-12.45,-15.15,-15.15,0,*5C
1491948112.47,4685,13.75,73194.0,-12.45,-15.07,-15.15,0,*5E
1491948113.7,4686,13.75,73154.3,-12.45,-15.15,-15.11,0,*5A
1491948114.94,4687,13.75,73144.3,-12.45,-15.07,-15.07,0,*5F
1491948116.22,4688,13.75,73184.3,-12.45,-15.01,-15.01,0,*50
1491948117.49,4689,13.75,73212.3,-12.45,-15.01,-15.01,0,*51
1491948118.73,4690,13.75,73218.0,-12.45,-15.07,-15.07,0,*59
1491948120.01,4691,13.75,73214.5,-12.45,-15.01,-14.93,0,*52
1491948121.29,4692,13.75,73236.3,-12.45,-14.93,-15.01,0,*51
1491948122.56,4693,13.75,73234.3,-12.45,-15.01,-14.93,0,*50
1491948123.82,4694,13.75,73238.0,-12.45,-15.07,-15.01,0,*5B
1491948125.06,4695,13.75,73238.8,-12.45,-15.07,-15.07,0,*5C
1491948126.31,4696,13.75,73240.0,-12.45,-15.07,-15.21,0,*5B
1491948127.55,4697,13.75,73238.3,-12.45,-15.15,-15.15,0,*5E
1491948128.82,4698,13.75,73240.5,-12.45,-15.25,-15.35,0,*50
1491948130.1,4699,13.75,73242.8,-12.45,-15.35,-15.35,0,*50
1491948131.37,4700,13.75,73240.5,-12.45,-15.35,-15.25,0,*50
1491948132.63,4701,13.75,73238.0,-12.49,-15.21,-15.25,0,*58
1491948133.88,4702,13.75,73240.5,-12.49,-15.25,-15.25,0,*5F
1491948135.14,4703,13.75,73236.3,-12.49,-15.21,-15.25,0,*5A
1491948136.42,4704,13.75,73228.0,-12.49,-15.21,-15.21,0,*59
1491948137.68,4705,13.75,73236.8,-12.49,-15.11,-15.21,0,*5B
1491948138.93,4706,13.75,73236.8,-12.49,-15.11,-15.21,0,*58
1491948140.19,4707,13.75,73234.0,-12.49,-15.21,-15.25,0,*5E
1491948141.44,4708,13.75,73236.8,-12.49,-15.25,-15.29,0,*59
1491948142.7,4709,13.75,73234.8,-12.49,-15.21,-15.25,0,*50
1491948143.94,4710,13.75,73236.0,-12.51,-15.21,-15.25,0,*51
1491948145.2,4711,13.75,73236.3,-12.49,-15.21,-15.25,0,*59
1491948146.44,4712,13.75,73228.5,-12.51,-15.21,-15.25,0,*53
1491948147.72,4713,13.75,73230.8,-12.49,-15.21,-15.21,0,*5F
1491948148.98,4714,13.75,73234.5,-12.49,-15.25,-15.21,0,*5C
1491948150.24,4715,13.75,73232.0,-12.51,-15.21,-15.21,0,*50
1491948151.5,4716,13.75,73234.8,-12.49,-15.21,-15.25,0,*5E
1491948152.75,4717,13.75,73234.0,-12.49,-15.29,-15.25,0,*57
1491948153.97,4718,13.75,73234.8,-12.51,-15.29,-15.29,0,*5D
1491948155.18,4719,13.75,73236.5,-12.51,-15.11,-15.11,0,*5C
1491948156.41,4720,13.75,73242.5,-12.49,-15.11,-15.11,0,*5F
1491948157.64,4721,13.75,73254.5,-12.51,-15.21,-15.11,0,*54
1491948158.85,4722,13.75,73258.5,-12.51,-15.07,-15.07,0,*54
1491948160.06,4723,13.75,73230.8,-12.51,-15.07,-15.07,0,*55
1491948161.27,4724,13.75,73210.8,-12.51,-15.11,-15.11,0,*52
1491948162.48,4725,13.75,73212.8,-12.51,-15.11,-15.11,0,*53
1491948163.71,4726,13.75,73214.3,-12.51,-15.21,-15.11,0,*53
1491948164.92,4727,13.75,73200.8,-12.51,-15.07,-15.07,0,*51
1491948166.13,4728,13.75,73170.3,-12.51,-15.11,-15.07,0,*59
1491948167.38,4729,13.75,73226.8,-12.49,-14.97,-15.07,0,*5E
1491948168.64,4730,13.75,73248.8,-12.49,-14.97,-15.07,0,*56
1491948169.85,4731,13.75,73204.0,-12.51,-15.07,-15.11,0,*51
1491948171.06,4732,13.75,73228.3,-12.51,-15.07,-15.07,0,*55
1491948172.34,4733,13.75,73240.8,-12.49,-14.97,-14.97,0,*5D
1491948173.6,4734,13.75,73238.0,-12.51,-14.97,-14.93,0,*57
1491948174.86,4735,13.75,73208.8,-12.51,-14.97,-14.97,0,*52
1491948176.1,4736,13.75,73196.5,-12.53,-15.15,-15.11,0,*57
1491948177.35,4737,13.75,73198.0,-12.51,-14.93,-14.93,0,*50
1491948178.59,4738,13.75,73208.0,-12.49,-14.65,-14.65,0,*56
1491948179.85,4739,13.75,73208.8,-12.49,-14.69,-14.83,0,*53
1491948181.13,4740,13.75,73238.0,-12.45,-14.79,-14.79,0,*55
1491948182.41,4741,13.75,73260.5,-12.49,-14.97,-14.97,0,*58
1491948183.69,4742,13.75,73232.8,-12.49,-14.97,-14.93,0,*5F
1491948184.98,4743,13.75,73232.5,-12.49,-14.79,-14.83,0,*5F
1491948186.27,4744,13.75,73236.8,-12.49,-14.79,-14.83,0,*58
1491948187.53,4745,13.75,73238.5,-12.51,-14.83,-14.79,0,*50
1491948188.8,4746,13.75,73250.8,-12.45,-14.89,-14.79,0,*5C
1491948190.06,4747,13.75,73258.8,-12.51,-14.93,-14.97,0,*53
1491948191.35,4748,13.75,73248.0,-12.49,-14.83,-14.93,0,*50
1491948192.58,4749,13.75,73254.0,-12.49,-15.11,-15.11,0,*50
1491948193.81,4750,13.75,73240.3,-12.51,-14.97,-15.07,0,*59
1491948195.09,4751,13.75,73242.0,-12.49,-14.93,-14.93,0,*59
1491948196.35,4752,13.75,73236.5,-12.49,-14.97,-15.11,0,*55
1491948197.56,4753,13.75,73242.3,-12.51,-15.07,-15.11,0,*55
1491948198.79,4754,13.75,73238.8,-12.49,-15.11,-15.07,0,*5B
1491948200.02,4755,13.75,73240.5,-12.49,-15.11,-15.11,0,*5D
1491948201.23,4756,13.75,73250.3,-12.51,-15.07,-15.11,0,*50
1491948202.49,4757,13.75,73246.0,-12.49,-14.97,-15.07,0,*57
1491948203.77,4758,13.75,73194.8,-12.49,-14.97,-14.93,0,*54
1491948205.05,4759,13.75,73188.5,-12.49,-14.93,-14.83,0,*50
1491948206.34,4760,13.75,73246.0,-12.49,-14.83,-14.79,0,*5E
1491948207.63,4761,13.75,73256.8,-12.49,-14.83,-14.83,0,*5A
1491948208.84,4762,13.75,73234.8,-12.51,-14.69,-14.69,0,*50
1491948210.12,4763,13.75,73222.8,-12.49,-14.79,-14.83,0,*5D
1491948211.38,4764,13.75,73228.5,-12.51,-14.97,-14.97,0,*56
1491948212.64,4765,13.75,73234.0,-12.51,-14.97,-14.93,0,*53
1491948213.89,4766,13.75,73240.3,-12.51,-14.93,-14.93,0,*54
1491948215.18,4767,13.75,73242.8,-12.49,-14.93,-14.93,0,*5C
1491948216.44,4768,13.75,73234.5,-12.51,-14.93,-14.97,0,*5E
1491948217.72,4769,13.75,73244.3,-12.49,-14.97,-14.83,0,*57
1491948219.0,4770,13.75,73246.8,-12.49,-14.79,-14.83,0,*5F
1491948220.3,4771,13.75,73248.0,-12.49,-14.83,-14.83,0,*5B
1491948221.58,4772,13.75,73254.8,-12.49,-14.93,-14.93,0,*58
1491948222.83,4773,13.75,73244.3,-12.49,-14.79,-14.69,0,*58
1491948224.07,4774,13.75,73242.3,-12.49,-14.65,-14.65,0,*5E
1491948225.33,4775,13.75,73238.3,-12.49,-14.69,-14.83,0,*5B
1491948226.59,4776,13.75,73242.5,-12.51,-14.83,-14.93,0,*54
1491948227.87,4777,13.75,73236.5,-12.49,-14.93,-14.93,0,*5D
1491948229.13,4778,13.75,73228.0,-12.51,-14.93,-14.93,0,*5B
1491948230.41,4779,13.75,73204.0,-12.49,-14.93,-14.93,0,*53
1491948231.69,4780,13.75,73228.8,-12.49,-14.97,-14.97,0,*55
1491948232.97,4781,13.75,73230.5,-12.49,-14.97,-14.97,0,*54
1491948234.26,4782,13.75,73244.8,-12.49,-14.93,-14.93,0,*57
1491948235.54,4783,13.75,73252.0,-12.49,-14.97,-14.97,0,*56
1491948236.77,4784,13.75,73250.0,-12.49,-15.07,-15.07,0,*51
1491948238.03,4785,13.75,73246.3,-12.51,-14.93,-14.93,0,*59
1491948239.31,4786,13.75,73246.5,-12.49,-14.93,-14.93,0,*53
1491948240.59,4787,13.75,73256.3,-12.49,-14.93,-14.97,0,*56
1491948241.85,4788,13.69,73254.0,-12.45,-14.89,-15.01,0,*50
1491948243.09,4789,13.75,73246.5,-12.49,-15.07,-15.07,0,*5C
1491948244.32,4790,13.75,73242.0,-12.49,-15.11,-15.11,0,*54
1491948245.55,4791,13.75,73256.0,-12.49,-15.07,-15.11,0,*52
1491948246.76,4792,13.75,73250.8,-12.51,-15.07,-15.07,0,*5F
1491948248.0,4793,13.75,73244.3,-12.49,-15.07,-15.07,0,*57
1491948249.28,4794,13.75,73250.5,-12.49,-14.97,-14.97,0,*50
1491948250.49,4795,13.75,73248.5,-12.51,-15.07,-15.07,0,*58
1491948251.7,4796,13.75,73252.0,-12.51,-15.07,-15.11,0,*5C
1491948252.94,4797,13.75,73272.0,-12.51,-15.21,-15.25,0,*5E
1491948254.17,4798,13.75,73268.8,-12.49,-15.07,-15.07,0,*5C
1491948255.46,4799,13.75,73262.5,-12.49,-14.79,-14.83,0,*58
1491948256.72,4800,13.75,73258.0,-12.51,-14.79,-14.79,0,*5B
1491948258.01,4801,13.75,73252.0,-12.49,-14.79,-14.83,0,*56
1491948259.23,4802,13.75,73236.8,-12.49,-14.69,-14.69,0,*50
1491948260.44,4803,13.75,73224.5,-12.51,-14.69,-14.65,0,*54
1491948261.71,4804,13.75,73214.0,-12.51,-14.83,-14.83,0,*5F
1491948263.0,4805,13.75,73210.3,-12.49,-14.79,-14.79,0,*57
1491948264.28,4806,13.75,73206.3,-12.49,-14.79,-14.83,0,*51
1491948265.55,4807,13.75,73236.3,-12.51,-14.79,-14.79,0,*5C
1491948266.84,4808,13.75,73216.5,-12.49,-14.83,-14.79,0,*5F
1491948268.13,4809,13.75,73236.3,-12.49,-14.79,-14.79,0,*5B
1491948269.36,4810,13.75,73248.5,-12.49,-14.69,-14.65,0,*5F
1491948270.64,4811,13.75,73254.5,-12.49,-14.93,-14.83,0,*53
1491948271.92,4812,13.75,73252.5,-12.49,-14.97,-14.97,0,*51
1491948273.18,4813,13.69,73258.8,-12.51,-14.97,-14.97,0,*59
1491948274.47,4814,13.75,73262.8,-12.49,-14.97,-14.97,0,*57
1491948275.75,4815,13.75,73244.0,-12.49,-14.97,-14.97,0,*56
1491948277.03,4816,13.75,73244.8,-12.49,-14.97,-14.97,0,*55
1491948278.28,4817,13.75,73222.5,-12.49,-14.97,-15.07,0,*5C
1491948279.49,4818,13.75,73176.5,-12.51,-15.07,-15.11,0,*55
1491948280.7,4819,13.75,73230.8,-12.51,-15.07,-15.07,0,*53
1491948281.97,4820,13.69,73202.8,-12.51,-14.83,-14.93,0,*58
1491948283.24,4821,13.75,73214.3,-12.51,-14.83,-14.79,0,*5D
1491948284.53,4822,13.69,73208.0,-12.49,-14.83,-14.83,0,*52
1491948285.81,4823,13.75,73228.8,-12.49,-14.97,-14.97,0,*53
1491948287.07,4824,13.75,73230.3,-12.51,-14.93,-14.83,0,*5C
1491948288.33,4825,13.75,73256.0,-12.49,-14.69,-14.79,0,*54
1491948289.58,4826,13.75,73218.0,-12.49,-14.69,-14.79,0,*57
1491948290.85,4827,13.75,73200.0,-12.51,-14.83,-14.79,0,*5B
1491948292.08,4828,13.75,73250.8,-12.51,-14.69,-14.79,0,*50
1491948293.29,4829,13.75,73252.8,-12.51,-14.69,-14.65,0,*5C
1491948294.55,4830,13.75,73256.5,-12.49,-14.69,-14.79,0,*50
1491948295.84,4831,13.75,73210.0,-12.49,-14.83,-14.97,0,*55
1491948297.13,4832,13.75,73198.5,-12.49,-14.93,-14.97,0,*57
1491948298.41,4833,13.75,73234.3,-12.49,-14.93,-14.93,0,*52
1491948299.69,4834,13.75,73242.8,-12.49,-14.93,-14.93,0,*55
1491948300.95,4835,13.75,73244.5,-12.51,-14.97,-14.97,0,*5D
1491948302.2,4836,13.75,73258.0,-12.51,-14.97,-14.93,0,*5A
1491948303.44,4837,13.75,73252.3,-12.49,-15.07,-15.11,0,*51
1491948304.67,4838,13.75,73254.5,-12.49,-15.11,-15.11,0,*59
1491948305.9,4839,13.75,73240.3,-12.49,-15.11,-15.11,0,*58
1491948307.13,4840,13.75,73242.8,-12.49,-15.11,-15.11,0,*56
1491948308.36,4841,13.75,73250.0,-12.49,-15.11,-15.11,0,*57
1491948309.57,4842,13.75,73250.0,-12.51,-15.11,-15.11,0,*5D
1491948310.78,4843,13.75,73244.8,-12.51,-15.07,-15.07,0,*5C
1491948311.99,4844,13.69,73244.0,-12.51,-15.07,-15.11,0,*5C
1491948313.23,4845,13.69,73250.5,-12.49,-15.07,-15.11,0,*54
1491948314.49,4846,13.69,73246.3,-12.51,-14.93,-14.97,0,*5D
1491948315.7,4847,13.69,73236.3,-12.51,-14.69,-14.65,0,*54
1491948316.9,4848,13.75,73230.0,-12.51,-14.69,-14.69,0,*57
1491948318.13,4849,13.75,73206.3,-12.51,-14.69,-14.83,0,*52
1491948319.37,4850,13.75,73226.5,-12.51,-14.65,-14.79,0,*53
1491948320.58,4851,13.75,73240.0,-12.51,-14.37,-14.37,0,*5F
1491948321.82,4852,13.75,73230.5,-12.49,-14.37,-14.37,0,*55
1491948323.11,4853,13.75,73216.8,-12.49,-14.55,-14.55,0,*54
1491948324.34,4854,13.75,73196.3,-12.49,-14.69,-14.65,0,*5F
1491948325.58,4855,13.75,73132.0,-12.49,-14.65,-14.65,0,*52
1491948326.84,4856,13.75,73168.0,-12.49,-14.55,-14.65,0,*52
1491948328.13,4857,13.75,73186.0,-12.49,-14.55,-14.55,0,*50
1491948329.4,4858,13.75,73186.5,-12.49,-14.55,-14.65,0,*5C
1491948330.66,4859,13.75,73244.0,-12.49,-14.51,-14.69,0,*55
1491948331.92,4860,13.69,73234.5,-12.45,-14.65,-14.79,0,*55
1491948333.16,4861,13.69,73230.0,-12.45,-14.89,-14.89,0,*59
1491948334.4,4862,13.75,73234.3,-12.45,-14.89,-14.89,0,*5A
1491948335.68,4863,13.69,73236.3,-12.45,-14.93,-15.01,0,*51
1491948336.96,4864,13.75,73238.3,-12.45,-15.01,-14.93,0,*56
1491948338.2,4865,13.75,73248.3,-12.45,-15.07,-15.07,0,*5D
1491948339.43,4866,13.75,73250.3,-12.45,-15.15,-15.15,0,*5E
1491948340.71,4867,13.75,73250.8,-12.45,-15.01,-15.01,0,*5F
1491948341.99,4868,13.75,73216.8,-12.45,-14.93,-15.01,0,*5A
1491948343.27,4869,13.75,73200.0,-12.45,-14.93,-14.93,0,*51
1491948344.53,4870,13.75,73230.3,-12.49,-14.97,-15.07,0,*5D
1491948345.81,4871,13.75,73224.0,-12.49,-14.97,-14.93,0,*50
1491948347.09,4872,13.75,73230.3,-12.49,-14.93,-14.97,0,*53
1491948348.37,4873,13.75,73240.3,-12.49,-14.97,-14.97,0,*56
1491948349.63,4874,13.69,73238.3,-12.49,-15.07,-14.97,0,*59
1491948350.89,4875,13.75,73246.5,-12.45,-15.07,-14.93,0,*50
1491948352.15,4876,13.69,73194.0,-12.49,-14.97,-15.07,0,*5B
1491948353.36,4877,13.69,73156.5,-12.51,-15.11,-15.11,0,*5B
1491948354.61,4878,13.75,73194.5,-12.49,-15.11,-15.21,0,*5E
1491948355.85,4879,13.75,73196.5,-12.49,-15.07,-15.07,0,*5C
1491948357.1,4880,13.75,73202.0,-12.49,-14.97,-15.07,0,*52
1491948358.39,4881,13.75,73224.0,-12.49,-14.83,-14.93,0,*5A
1491948359.67,4882,13.69,73194.8,-12.49,-14.93,-14.97,0,*5C
1491948360.93,4883,13.75,73198.5,-12.49,-14.97,-15.11,0,*56
1491948362.16,4884,13.75,73234.0,-12.51,-14.97,-15.11,0,*58
1491948363.43,4885,13.69,73218.3,-12.49,-14.83,-15.07,0,*52
1491948364.72,4886,13.69,73250.0,-12.49,-14.83,-14.93,0,*5D
1491948365.97,4887,13.69,73244.0,-12.49,-14.93,-15.07,0,*51
1491948367.21,4888,13.75,73230.3,-12.51,-14.93,-15.11,0,*50
1491948368.44,4889,13.69,73220.8,-12.51,-14.97,-15.11,0,*55
1491948369.67,4890,13.69,73240.3,-12.49,-15.07,-15.11,0,*5C
1491948370.9,4891,13.75,73244.8,-12.51,-14.97,-15.11,0,*5C
1491948372.14,4892,13.69,73238.3,-12.49,-15.07,-15.11,0,*5E
1491948373.37,4893,13.69,73240.8,-12.49,-15.11,-15.11,0,*58
1491948374.63,4894,13.75,73246.3,-12.49,-15.11,-15.21,0,*5C
1491948375.88,4895,13.69,73244.5,-12.49,-15.11,-15.21,0,*5D
1491948377.1,4896,13.75,73244.3,-12.51,-15.11,-15.29,0,*5F
1491948378.34,4897,13.75,73250.8,-12.51,-15.21,-15.29,0,*5D
1491948379.56,4898,13.75,73248.5,-12.51,-15.25,-15.29,0,*56
1491948380.8,4899,13.75,73252.3,-12.51,-15.21,-15.29,0,*53
1491948382.05,4900,13.75,73250.0,-12.53,-15.15,-15.29,0,*57
1491948383.3,4901,13.69,73248.5,-12.53,-15.15,-15.25,0,*5A
1491948384.53,4902,13.75,73258.3,-12.53,-15.11,-15.15,0,*5E
1491948385.82,4903,13.75,73258.5,-12.53,-14.97,-14.97,0,*5B
1491948387.1,4904,13.75,73258.3,-12.53,-14.75,-14.75,0,*5C
1491948388.34,4905,13.75,73252.5,-12.51,-14.69,-14.83,0,*5B
1491948389.57,4906,13.75,73256.5,-12.51,-14.69,-14.79,0,*5D
1491948390.77,4907,13.75,73256.3,-12.51,-14.65,-14.69,0,*51
1491948392.03,4908,13.75,73194.0,-12.49,-14.55,-14.69,0,*54
1491948393.27,4909,13.69,73238.3,-12.51,-14.51,-14.69,0,*58
1491948394.53,4910,13.75,73260.3,-12.53,-14.69,-14.75,0,*54
1491948395.77,4911,13.75,73246.8,-12.51,-14.55,-14.69,0,*55
1491948397.0,4912,13.75,73224.0,-12.51,-14.55,-14.69,0,*56
1491948398.26,4913,13.75,73214.3,-12.49,-14.69,-14.83,0,*55
1491948399.55,4914,13.75,73190.0,-12.49,-14.83,-14.97,0,*53
1491948400.82,4915,13.75,73182.0,-12.51,-14.83,-14.97,0,*5B
1491948402.08,4916,13.75,73172.3,-12.51,-14.79,-14.93,0,*59
1491948403.32,4917,13.75,73240.5,-12.51,-14.69,-14.83,0,*58
1491948404.55,4918,13.75,73254.8,-12.45,-14.65,-14.89,0,*54
1491948405.82,4919,13.75,73278.8,-12.51,-14.83,-14.97,0,*57
1491948407.08,4920,13.75,73264.0,-12.49,-14.97,-15.11,0,*5E
1491948408.31,4921,13.75,73270.0,-12.49,-15.07,-15.11,0,*57
1491948409.52,4922,13.75,73256.8,-12.51,-15.11,-15.11,0,*5A
1491948410.75,4923,13.75,73258.0,-12.49,-15.07,-15.11,0,*55
1491948411.96,4924,13.69,73244.8,-12.51,-15.07,-15.11,0,*5B
1491948413.17,4925,13.75,73246.0,-12.51,-15.07,-15.07,0,*5D
1491948414.38,4926,13.69,73252.8,-12.51,-15.07,-15.11,0,*59
1491948415.6,4927,13.69,73252.5,-12.51,-15.07,-15.11,0,*58
1491948416.85,4928,13.69,73232.5,-12.51,-14.93,-14.93,0,*50
1491948418.12,4929,13.75,73232.3,-12.51,-14.79,-14.79,0,*51
1491948419.39,4930,13.75,73236.5,-12.51,-14.83,-14.97,0,*5C
1491948420.62,4931,13.75,73234.3,-12.51,-14.97,-15.11,0,*57
1491948421.85,4932,13.69,73254.0,-12.51,-14.93,-15.11,0,*50
1491948423.13,4933,13.75,73248.5,-12.53,-15.01,-15.01,0,*58
1491948424.4,4934,13.75,73252.5,-12.53,-14.83,-14.89,0,*55
1491948425.64,4935,13.75,73264.3,-12.51,-14.69,-14.79,0,*5D
1491948426.91,4936,13.69,73290.8,-12.51,-14.51,-14.55,0,*5B
1491948428.17,4937,13.75,73274.0,-12.49,-14.37,-14.51,0,*57
1491948429.38,4938,13.69,73246.8,-12.51,-14.65,-14.69,0,*5D
1491948430.66,4939,13.75,73236.0,-12.49,-14.79,-14.97,0,*59
1491948431.87,4940,13.75,73218.3,-12.51,-14.65,-14.69,0,*52
1491948433.16,4941,13.69,73204.3,-12.49,-14.51,-14.55,0,*52
1491948434.37,4942,13.75,73208.5,-12.51,-14.65,-14.69,0,*50
1491948435.62,4943,13.75,73220.8,-12.49,-14.69,-14.83,0,*50
1491948436.88,4944,13.69,73208.3,-12.49,-14.65,-14.79,0,*5E
1491948438.17,4945,13.75,73250.3,-12.49,-14.79,-14.83,0,*57
1491948439.46,4946,13.75,73248.8,-12.49,-14.79,-14.97,0,*51
1491948440.71,4947,13.75,73266.3,-12.49,-14.69,-14.79,0,*51
1491948441.95,4948,13.75,73270.5,-12.51,-14.69,-14.83,0,*52
1491948443.24,4949,13.75,73256.8,-12.49,-14.83,-14.93,0,*5F
1491948444.5,4950,13.75,73260.5,-12.51,-14.79,-14.97,0,*5F
1491948445.79,4951,13.75,73268.8,-12.49,-14.79,-14.97,0,*57
1491948447.0,4952,13.75,73272.5,-12.51,-15.07,-15.07,0,*5D
1491948448.23,4953,13.69,73270.8,-12.51,-14.93,-15.07,0,*50
1491948449.46,4954,13.69,73268.3,-12.51,-14.97,-15.11,0,*54
1491948450.67,4955,13.69,73274.8,-12.51,-15.11,-15.11,0,*5A
1491948451.89,4956,13.75,73272.3,-12.51,-15.11,-15.25,0,*5E
1491948453.1,4957,13.75,73270.5,-12.51,-15.11,-15.25,0,*5F
1491948454.36,4958,13.69,73264.5,-12.53,-15.01,-15.15,0,*50
1491948455.59,4959,13.69,73282.3,-12.51,-14.97,-15.07,0,*5E
1491948456.82,4960,13.75,73286.0,-12.51,-14.97,-15.11,0,*53
1491948458.05,4961,13.75,73272.8,-12.51,-14.97,-15.07,0,*55
1491948459.29,4962,13.69,73258.5,-12.51,-14.97,-15.11,0,*51
1491948460.52,4963,13.69,73244.0,-12.51,-14.97,-15.07,0,*57
1491948461.75,4964,13.69,73254.3,-12.51,-14.97,-15.07,0,*50
1491948463.01,4965,13.69,73282.3,-12.51,-14.93,-14.97,0,*5D
1491948464.24,4966,13.75,73284.5,-12.51,-14.97,-15.07,0,*52
1491948465.5,4967,13.69,73278.3,-12.51,-14.93,-14.97,0,*5F
1491948466.76,4968,13.69,73268.8,-12.51,-14.79,-14.93,0,*50
1491948468.0,4969,13.69,73262.5,-12.53,-14.89,-15.11,0,*57
1491948469.24,4970,13.69,73274.8,-12.53,-15.11,-15.15,0,*5B
1491948470.5,4971,13.69,73274.0,-12.53,-15.01,-15.15,0,*5B
1491948471.74,4972,13.69,73274.3,-12.53,-15.11,-15.25,0,*5A
1491948472.99,4973,13.69,73256.8,-12.53,-15.15,-15.25,0,*5F
1491948474.25,4974,13.75,73258.5,-12.53,-15.01,-15.15,0,*5E
1491948475.5,4975,13.69,73238.0,-12.53,-15.01,-15.15,0,*5F
1491948476.74,4976,13.69,73260.3,-12.53,-15.11,-15.15,0,*5D
1491948478.0,4977,13.69,73284.3,-12.53,-15.01,-15.15,0,*5D
1491948479.21,4978,13.69,73272.0,-12.55,-15.11,-15.15,0,*55
1491948480.5,4979,13.69,73258.5,-12.53,-14.83,-15.01,0,*5D
1491948481.78,4980,13.69,73260.3,-12.53,-14.97,-14.97,0,*50
1491948483.02,4981,13.75,73272.5,-12.53,-15.11,-15.15,0,*55
1491948484.27,4982,13.69,73282.8,-12.53,-15.15,-15.25,0,*51
1491948485.51,4983,13.69,73276.0,-12.53,-15.11,-15.25,0,*54
1491948486.77,4984,13.69,73286.3,-12.53,-14.97,-15.15,0,*5F
1491948488.02,4985,13.69,73274.0,-12.55,-14.83,-14.89,0,*59
1491948489.31,4986,13.75,73262.0,-12.53,-14.83,-14.97,0,*53
1491948490.58,4987,13.69,73258.3,-12.53,-14.89,-15.01,0,*56
1491948491.84,4988,13.69,73260.5,-12.53,-15.01,-15.11,0,*59
1491948493.09,4989,13.69,73244.5,-12.53,-15.01,-15.11,0,*58
1491948494.35,4990,13.69,73252.5,-12.53,-14.97,-15.11,0,*5E
1491948495.6,4991,13.69,73274.5,-12.55,-14.83,-14.89,0,*5C
1491948496.84,4992,13.69,73256.3,-12.55,-14.83,-14.89,0,*5F
1491948498.09,4993,13.69,73254.5,-12.51,-14.55,-14.65,0,*53
1491948499.33,4994,13.69,73244.8,-12.53,-14.61,-14.61,0,*55